Location: Orange
(33.2833°S, 149.1000°E)
Time: 11:31:06
(UTC+11:00)

Envisat - Pass Details

Date: 09 December 2021
Orbit: 764 x 766 km, 98.2° (Epoch: 22 January)

Event Time Altitude Azimuth Distance (km) Brightness Sun altitude
Rises 03:49:28 0° 66° (ENE) 3,228 6.5 -20.3°
Reaches altitude 10° 03:53:31 10° 98° (E) 2,314 6.2 -19.7°
Maximum altitude 03:55:04 11° 116° (ESE) 2,223 6.4 -19.5°
Drops below altitude 10° 03:56:37 10° 134° (SE) 2,322 6.7 -19.3°
Sets 04:00:42 0° 166° (SSE) 3,260 7.3 -18.7°
